Aniak, AK

10:16 AM AKST on December 05, 2016 (GMT -0900)
Aniak

Weather History for PANI - February, 2013

Change the Weather History Date:

Friday, February 22, 2013

  Actual Average Record
Temperature  
Mean Temperature 2 °F -  
Max Temperature 5 °F 24 °F 44 °F (2015)
Min Temperature -2 °F 11 °F -18 °F (2007)
Degree Days  
Heating Degree Days 64    
Moisture  
Dew Point -6 °F    
Average Humidity 75    
Maximum Humidity 100    
Minimum Humidity 30    
Precipitation  
Precipitation 0.00 in - - ()
Sea Level Pressure  
Sea Level Pressure 29.50 in    
Wind  
Wind Speed 1 mph (NE)    
Max Wind Speed 6 mph    
Max Gust Speed -    
Visibility 10 miles    
Events      
Averages and records for this station are not official NWS values.
T = Trace of Precipitation, MM = Missing Value Source: NWS Daily Summary

Daily Weather History Graph

Daily Weather History Graph

Search for Another Location

Airport or City:

Trip Planner

Search our weather history database for the weather conditions in past years. The results will help you decide how hot, cold, wet, or windy it might be!

Date:

Astronomy

Feb. 22, 2013 Rise Set
Actual Time 8:59 AM AKST 6:44 PM AKST
Civil Twilight 8:14 AM AKST 7:29 PM AKST
Nautical Twilight 7:24 AM AKST 8:20 PM AKST
Astronomical Twilight 6:33 AM AKST 9:11 PM AKST
Moon 3:34 PM AKST (2/22) 7:28 AM AKST (2/22)
Length of Visible Light 11h 14m
Length of Day
9h 44m
Waxing Gibbous, 91% of the Moon is Illuminated
Feb 22
Waxing Gibbous
Feb 25
Full
Mar 4
Last Quarter
Mar 11
New
Mar 19
First Quarter

Hourly Weather History & Observations

Time (AKST) Temp. Windchill Dew Point Humidity Pressure Visibility Wind Dir Wind Speed Gust Speed Precip Events Conditions
12:16 AM -0.4 °F - -0.4 °F 100% 29.50 in 10.0 mi Calm Calm - N/A   Overcast
12:36 AM -0.4 °F - -7.6 °F 72% 29.51 in 10.0 mi Calm Calm - N/A   Overcast
12:56 AM -0.4 °F - -0.4 °F 100% 29.51 in 10.0 mi Calm Calm - N/A   Overcast
1:16 AM -0.4 °F - -7.6 °F 72% 29.51 in 10.0 mi Calm Calm - N/A   Overcast
1:36 AM -0.4 °F -8.3 °F -0.4 °F 100% 29.52 in 10.0 mi West 3.5 mph - N/A   Overcast
1:56 AM -0.4 °F -10.4 °F -7.6 °F 72% 29.52 in 10.0 mi West 4.6 mph - N/A   Overcast
2:16 AM -0.4 °F - -2.2 °F 92% 29.53 in 10.0 mi Calm Calm - N/A   Overcast
2:36 AM -0.4 °F -8.3 °F -9.4 °F 66% 29.53 in 10.0 mi West 3.5 mph - N/A   Overcast
3:16 AM -0.4 °F - -5.8 °F 78% 29.54 in 10.0 mi Calm Calm - N/A   Overcast
3:36 AM -0.4 °F - -9.4 °F 66% 29.54 in 10.0 mi Calm Calm - N/A   Overcast
3:56 AM -0.4 °F - -0.4 °F 100% 29.55 in 10.0 mi Calm Calm - N/A   Overcast
4:16 AM -0.4 °F - -14.8 °F 51% 29.55 in 10.0 mi Calm Calm - N/A   Overcast
4:36 AM -0.4 °F - -5.8 °F 78% 29.55 in 10.0 mi Calm Calm - N/A   Overcast
4:56 AM -0.4 °F - -25.6 °F 30% 29.55 in 10.0 mi Calm Calm - N/A   Overcast
5:16 AM -0.4 °F - -16.6 °F 46% 29.56 in 10.0 mi Calm Calm - N/A   Overcast
5:36 AM -0.4 °F - -0.4 °F 100% 29.57 in 10.0 mi Calm Calm - N/A   Overcast
5:56 AM -0.4 °F - -7.6 °F 72% 29.57 in 10.0 mi Calm Calm - N/A   Overcast
6:16 AM -0.4 °F - -0.4 °F 100% 29.57 in 10.0 mi Calm Calm - N/A   Overcast
6:36 AM -0.4 °F - -7.6 °F 72% 29.57 in 10.0 mi Calm Calm - N/A   Overcast
6:56 AM -0.4 °F - -2.2 °F 92% 29.58 in 10.0 mi Calm Calm - N/A   Overcast
7:16 AM -0.4 °F - -7.6 °F 72% 29.58 in 10.0 mi Calm Calm - N/A   Overcast
7:36 AM -0.4 °F -8.3 °F -2.2 °F 92% 29.58 in 10.0 mi WSW 3.5 mph - N/A   Overcast
7:56 AM -0.4 °F - -7.6 °F 72% 29.58 in 10.0 mi Calm Calm - N/A   Overcast
8:16 AM -0.4 °F - -2.2 °F 92% 29.59 in 10.0 mi Calm Calm - N/A   Overcast
8:36 AM -0.4 °F - -9.4 °F 66% 29.58 in 10.0 mi Calm Calm - N/A   Overcast
8:56 AM -2.2 °F - -2.2 °F 100% 29.59 in 10.0 mi Calm Calm - N/A   Overcast
9:16 AM -2.2 °F - -7.6 °F 78% 29.59 in 10.0 mi Calm Calm - N/A   Overcast
9:36 AM -0.4 °F - -2.2 °F 92% 29.59 in 10.0 mi Calm Calm - N/A   Overcast
9:56 AM -0.4 °F - -9.4 °F 66% 29.59 in 10.0 mi Calm Calm - N/A   Overcast
10:16 AM -0.4 °F -8.3 °F -2.2 °F 92% 29.59 in 10.0 mi West 3.5 mph - N/A   Overcast
10:36 AM -0.4 °F - -7.6 °F 72% 29.60 in 5.0 mi Calm Calm - N/A   Overcast
10:56 AM -0.4 °F - -2.2 °F 92% 29.60 in 5.0 mi Calm Calm - N/A   Overcast
11:16 AM -0.4 °F - -5.8 °F 78% 29.60 in 4.0 mi Calm Calm - N/A   Overcast
11:36 AM -0.4 °F - -0.4 °F 100% 29.59 in 8.0 mi Calm Calm - N/A   Overcast
11:56 AM -0.4 °F -8.3 °F -9.4 °F 66% 29.59 in 8.0 mi ENE 3.5 mph - N/A   Overcast
12:16 PM -0.4 °F - -0.4 °F 100% 29.58 in 9.0 mi Calm Calm - N/A   Overcast
12:36 PM -0.4 °F - -7.6 °F 72% 29.58 in 9.0 mi Calm Calm - N/A   Overcast
12:56 PM 1.4 °F - -4.0 °F 78% 29.59 in 10.0 mi Calm Calm - N/A   Overcast
1:16 PM 1.4 °F - -0.4 °F 92% 29.58 in 10.0 mi Calm Calm - N/A   Overcast
1:36 PM 1.4 °F -8.3 °F -7.6 °F 66% 29.57 in 10.0 mi NNE 4.6 mph - N/A   Overcast
1:56 PM 1.4 °F -6.2 °F 1.4 °F 100% 29.56 in 10.0 mi ENE 3.5 mph - N/A   Overcast
2:16 PM 3.2 °F -4.2 °F -7.6 °F 61% 29.56 in 10.0 mi NE 3.5 mph - N/A   Overcast
2:36 PM 3.2 °F - -2.2 °F 78% 29.55 in 9.0 mi Calm Calm - N/A   Overcast
2:56 PM 3.2 °F - -0.4 °F 85% 29.53 in 10.0 mi Calm Calm - N/A   Overcast
3:16 PM 3.2 °F - -4.0 °F 72% 29.53 in 10.0 mi Calm Calm - N/A   Overcast
3:36 PM 3.2 °F - -2.2 °F 78% 29.53 in 10.0 mi Calm Calm - N/A   Overcast
3:56 PM 5.0 °F - -2.2 °F 72% 29.52 in 10.0 mi Calm Calm - N/A   Overcast
4:16 PM 5.0 °F -4.1 °F -0.4 °F 78% 29.51 in 10.0 mi ENE 4.6 mph - N/A   Mostly Cloudy
4:36 PM 5.0 °F -2.1 °F -2.2 °F 72% 29.50 in 10.0 mi ENE 3.5 mph - N/A   Scattered Clouds
4:56 PM 5.0 °F -5.6 °F -0.4 °F 78% 29.49 in 10.0 mi East 5.8 mph - N/A   Clear
5:16 PM 5.0 °F -4.1 °F -5.8 °F 61% 29.48 in 10.0 mi ENE 4.6 mph - N/A   Clear
5:36 PM 5.0 °F -4.1 °F -2.2 °F 72% 29.46 in 10.0 mi ENE 4.6 mph - N/A   Clear
5:56 PM 3.2 °F -4.2 °F -5.8 °F 66% 29.45 in 10.0 mi NE 3.5 mph - N/A   Clear
6:16 PM 3.2 °F - -5.8 °F 66% 29.45 in 10.0 mi Calm Calm - N/A   Mostly Cloudy
6:36 PM 1.4 °F - -7.6 °F 66% 29.43 in 10.0 mi Calm Calm - N/A   Scattered Clouds
6:56 PM 1.4 °F -6.2 °F -4.0 °F 78% 29.41 in 10.0 mi NE 3.5 mph - N/A   Scattered Clouds
7:16 PM 1.4 °F -8.3 °F -9.4 °F 61% 29.41 in 10.0 mi NNE 4.6 mph - N/A   Clear
7:36 PM -0.4 °F -10.4 °F -5.8 °F 78% 29.40 in 10.0 mi NNE 4.6 mph - N/A   Partly Cloudy
7:56 PM -0.4 °F -10.4 °F -9.4 °F 66% 29.40 in 10.0 mi NNE 4.6 mph - N/A   Mostly Cloudy
8:16 PM 1.4 °F -8.3 °F -5.8 °F 72% 29.38 in 10.0 mi NNE 4.6 mph - N/A   Mostly Cloudy
8:36 PM -0.4 °F -10.4 °F -7.6 °F 72% 29.38 in 10.0 mi NE 4.6 mph - N/A   Partly Cloudy
8:56 PM -0.4 °F -10.4 °F -7.6 °F 72% 29.37 in 10.0 mi NE 4.6 mph - N/A   Clear
9:16 PM -0.4 °F -12.0 °F -7.6 °F 72% 29.37 in 10.0 mi NE 5.8 mph - N/A   Clear
9:36 PM -0.4 °F -10.4 °F -11.2 °F 60% 29.36 in 10.0 mi ENE 4.6 mph - N/A   Mostly Cloudy
9:56 PM -0.4 °F -10.4 °F -5.8 °F 78% 29.34 in 10.0 mi ENE 4.6 mph - N/A   Overcast
10:16 PM 1.4 °F -8.3 °F -9.4 °F 61% 29.32 in 10.0 mi NE 4.6 mph - N/A   Overcast
10:36 PM 1.4 °F - -0.4 °F 92% 29.32 in 10.0 mi Calm Calm - N/A   Overcast
10:56 PM 1.4 °F -9.9 °F -14.8 °F 47% 29.30 in 10.0 mi ENE 5.8 mph - N/A   Overcast
11:16 PM 1.4 °F -9.9 °F -7.6 °F 66% 29.29 in 10.0 mi NE 5.8 mph - N/A   Overcast
11:36 PM 1.4 °F -6.2 °F -18.4 °F 39% 29.29 in 10.0 mi ENE 3.5 mph - N/A   Overcast
11:56 PM 1.4 °F -6.2 °F -18.4 °F 39% 29.28 in 10.0 mi ENE 3.5 mph - N/A   Overcast